Weather in Riesa

Germany     51°18′24″N   13°17′31″E
temp.,
°C
wind,
m/s
gust,
m/s
humid.,
%
clouds,
%
prec.,
mm/h
press.,
hPa
HPBL,
m
19 april, mon
mon1923:00+4sse22946 0.0 102018
02:00+4s2293100 0.0 102010
05:00+3ene1190100 0.0 102010
08:00+6ne1287100 0.0 1020120
11:00+10ne237397 0.0 1020682
14:00+12ene236297 0.0 10191294
17:00+13nnw236699 0.0 1018964
20:00+10wnw227699 0.0 101834
20 april, tue
tue2023:00+9w3490100 0.6 101777
02:00+7w229722 0.7 101723
05:00+5w119967 0.0 101711
08:00+8wsw009591 0.0 1017218
11:00+11w118692 0.0 1017482
14:00+14wnw116582 1.0 1016967
17:00+15ene115963 1.0 10141020
20:00+10nw1181100 3.1 101511
21 april, wed
wed2123:00+8wsw228660 0.3 101516
02:00+6wsw34925 0.3 101559
05:00+5w37965 0.0 1015124
08:00+7w469341 0.0 1016248
11:00+11wnw46702 0.0 1016868
14:00+13wnw56535 0.0 10151652
17:00+13wnw5758100 0.0 10151927
20:00+9nw4885100 0.1 1016350
22 april, thu
thu2223:00+7nw698342 0.3 1018545
02:00+1w4108426 0.3 1019210
05:000wsw4987100 0.0 1019264
08:00+3w51076100 0.0 1019732
11:00+6w71061100 0.1 10191605
14:00+7wnw7116199 0.1 10191818
17:00+8wnw8116435 0.4 10191625
20:00+5wnw612685 0.5 1020546
23 april, fri
fri2323:00+3w613735 0.0 1021357
02:00+1w511845 0.0 1023274
05:00−1wsw4109420 0.0 1024226
08:00+3w588272 0.0 1024575
11:00+6wnw677197 0.1 10251153
14:00+7wnw676942 0.1 10251086
17:00+10wnw686298 0.0 10241490
20:00+6w348122 0.1 102454